| time (UTC) | temp C | wind direction | speed KPH | gust KPH | rain 1hr cm | rain 24hr cm | rain mn cm | humidity % | barometer mb |
| 20260504081030 | 14 | 179 | 1.6 | 4.8 | 0.00 | 0.00 | 0.05 | 95 | 1013.0 |
| 20260504045030 | 12 | 262 | 0.0 | 1.6 | 0.00 | 0.00 | 0.05 | 94 | 1011.8 |
| 20260504044030 | 12 | 262 | 3.2 | 6.4 | 0.00 | 0.00 | 0.05 | 94 | 1011.8 |
| 20260504043029 | 12 | 275 | 6.4 | 11.3 | 0.00 | 0.00 | 0.05 | 94 | 1011.8 |
| 20260504042030 | 12 | 255 | 6.4 | 11.3 | 0.00 | 0.00 | 0.05 | 94 | 1011.8 |
| 20260504041030 | 12 | 252 | 8.0 | 11.3 | 0.00 | 0.00 | 0.05 | 94 | 1011.8 |
| 20260504040029 | 12 | 257 | 9.7 | 14.5 | 0.00 | 0.00 | 0.05 | 94 | 1011.7 |
| 20260504035029 | 13 | 250 | 9.7 | 14.5 | 0.00 | 0.00 | 0.05 | 94 | 1011.6 |
| 20260504034030 | 13 | 256 | 6.4 | 11.3 | 0.00 | 0.00 | 0.05 | 95 | 1011.7 |
| 20260504033030 | 13 | 236 | 4.8 | 11.3 | 0.00 | 0.00 | 0.05 | 94 | 1011.6 |
| 20260504032029 | 13 | 185 | 1.6 | 4.8 | 0.00 | 0.00 | 0.05 | 94 | 1011.7 |
| 20260504031030 | 13 | 162 | 0.0 | 4.8 | 0.00 | 0.00 | 0.05 | 94 | 1011.7 |
| 20260504030030 | 13 | 214 | 3.2 | 8.0 | 0.00 | 0.00 | 0.05 | 94 | 1011.6 |
| 20260504025029 | 13 | 217 | 6.4 | 12.9 | 0.00 | 0.00 | 0.05 | 94 | 1011.6 |
| 20260504024030 | 13 | 222 | 6.4 | 14.5 | 0.00 | 0.00 | 0.05 | 94 | 1011.6 |
| 20260504023030 | 13 | 242 | 6.4 | 14.5 | 0.00 | 0.00 | 0.05 | 94 | 1011.5 |
| 20260504022029 | 13 | 222 | 6.4 | 9.7 | 0.00 | 0.00 | 0.05 | 94 | 1011.5 |
| 20260504021030 | 13 | 209 | 4.8 | 8.0 | 0.00 | 0.00 | 0.05 | 94 | 1011.5 |
| 20260504020030 | 13 | 216 | 4.8 | 8.0 | 0.00 | 0.00 | 0.05 | 94 | 1011.6 |
| 20260504015029 | 13 | 235 | 6.4 | 12.9 | 0.00 | 0.00 | 0.05 | 94 | 1011.6 |
| 20260504014030 | 13 | 240 | 9.7 | 16.1 | 0.00 | 0.00 | 0.05 | 94 | 1011.6 |
| 20260504013029 | 13 | 239 | 9.7 | 14.5 | 0.00 | 0.00 | 0.05 | 94 | 1011.4 |
| 20260504012030 | 13 | 232 | 8.0 | 14.5 | 0.00 | 0.00 | 0.05 | 94 | 1011.6 |
| 20260504011029 | 13 | 222 | 6.4 | 11.3 | 0.00 | 0.00 | 0.05 | 94 | 1011.5 |
| 20260504010030 | 13 | 207 | 6.4 | 11.3 | 0.00 | 0.00 | 0.05 | 94 | 1011.5 |
| 20260504005030 | 13 | 229 | 8.0 | 12.9 | 0.00 | 0.00 | 0.05 | 94 | 1011.4 |
| 20260504004029 | 13 | 240 | 9.7 | 16.1 | 0.00 | 0.00 | 0.05 | 94 | 1011.4 |
| 20260504003029 | 13 | 237 | 11.3 | 17.7 | 0.00 | 0.00 | 0.05 | 94 | 1011.5 |
| 20260504002030 | 13 | 227 | 6.4 | 9.7 | 0.00 | 0.00 | 0.05 | 94 | 1011.5 |
| 20260504001030 | 13 | 229 | 6.4 | 12.9 | 0.00 | 0.00 | 0.05 | 94 | 1011.5 |
| 20260504000029 | 13 | 237 | 11.3 | 16.1 | 0.00 | 0.00 | 0.05 | 94 | 1011.5 |
| 20260503235030 | 13 | 238 | 14.5 | 19.3 | 0.00 | 0.00 | 0.05 | 94 | 1011.6 |
| 20260503234030 | 13 | 245 | 14.5 | 19.3 | 0.00 | 0.00 | 0.05 | 94 | 1011.4 |
| 20260503233029 | 14 | 239 | 9.7 | 16.1 | 0.00 | 0.00 | 0.05 | 93 | 1011.4 |
| 20260503232030 | 14 | 206 | 4.8 | 8.0 | 0.00 | 0.00 | 0.05 | 93 | 1011.4 |
| 20260503231030 | 13 | 227 | 6.4 | 12.9 | 0.00 | 0.00 | 0.05 | 93 | 1011.4 |
| 20260503230030 | 14 | 247 | 9.7 | 12.9 | 0.00 | 0.00 | 0.05 | 93 | 1011.3 |
| 20260503225029 | 14 | 254 | 11.3 | 12.9 | 0.00 | 0.00 | 0.05 | 93 | 1011.3 |
| 20260503224029 | 14 | 271 | 11.3 | 16.1 | 0.00 | 0.00 | 0.05 | 94 | 1011.3 |
| 20260503223030 | 14 | 288 | 8.0 | 11.3 | 0.00 | 0.00 | 0.03 | 93 | 1011.2 |
| 20260503222029 | 14 | 292 | 6.4 | 11.3 | 0.00 | 0.00 | 0.03 | 93 | 1011.2 |
| 20260503221029 | 14 | 274 | 11.3 | 14.5 | 0.00 | 0.00 | 0.03 | 93 | 1011.1 |
| 20260503220029 | 14 | 257 | 14.5 | 17.7 | 0.00 | 0.00 | 0.81 | 93 | 1011.1 |
| 20260503215030 | 15 | 244 | 11.3 | 19.3 | 0.00 | 0.00 | 0.79 | 93 | 1011.0 |
| 20260503214030 | 15 | 217 | 9.7 | 16.1 | 0.00 | 0.00 | 0.74 | 93 | 1011.0 |
| 20260503213030 | 15 | 222 | 8.0 | 16.1 | 0.00 | 0.00 | 0.71 | 93 | 1010.9 |
| 20260503212029 | 15 | 207 | 4.8 | 11.3 | 0.00 | 0.00 | 0.71 | 92 | 1010.9 |
| 20260503211030 | 15 | 196 | 6.4 | 11.3 | 0.00 | 0.00 | 0.71 | 92 | 1011.0 |
| 20260503210029 | 15 | 192 | 3.2 | 9.7 | 0.00 | 0.00 | 0.61 | 92 | 1010.9 |
| 20260503205029 | 15 | 198 | 3.2 | 6.4 | 0.00 | 0.00 | 0.51 | 92 | 1010.9 |
| 20260503204030 | 15 | 183 | 1.6 | 4.8 | 0.00 | 0.00 | 0.51 | 92 | 1010.9 |
| 20260503203030 | 15 | 138 | 0.0 | 4.8 | 0.00 | 0.00 | 0.51 | 92 | 1010.8 |
| 20260503202030 | 15 | 156 | 0.0 | 1.6 | 0.00 | 0.00 | 0.51 | 92 | 1010.8 |
| 20260503201030 | 15 | 156 | 0.0 | 4.8 | 0.00 | 0.00 | 0.51 | 92 | 1010.7 |
| 20260503200029 | 15 | 164 | 0.0 | 4.8 | 0.00 | 0.00 | 0.51 | 92 | 1010.7 |
| 20260503195029 | 15 | 206 | 1.6 | 4.8 | 0.00 | 0.00 | 0.51 | 92 | 1010.7 |
| 20260503194030 | 15 | 153 | 1.6 | 4.8 | 0.00 | 0.00 | 0.51 | 91 | 1010.6 |
| 20260503193029 | 15 | 182 | 1.6 | 4.8 | 0.00 | 0.00 | 0.51 | 91 | 1010.5 |
| 20260503192029 | 15 | 182 | 1.6 | 6.4 | 0.00 | 0.00 | 0.51 | 92 | 1010.5 |
| 20260503191030 | 15 | 178 | 1.6 | 8.0 | 0.00 | 0.00 | 0.51 | 92 | 1010.4 |
| 20260503190030 | 15 | 195 | 4.8 | 11.3 | 0.00 | 0.00 | 0.51 | 92 | 1010.5 |
| 20260503185030 | 15 | 196 | 3.2 | 9.7 | 0.00 | 0.00 | 0.51 | 92 | 1010.3 |
| 20260503184030 | 15 | 192 | 4.8 | 11.3 | 0.00 | 0.00 | 0.51 | 92 | 1010.2 |
| 20260503183029 | 15 | 192 | 3.2 | 11.3 | 0.00 | 0.00 | 0.51 | 92 | 1010.0 |
| 20260503182030 | 15 | 209 | 4.8 | 11.3 | 0.00 | 0.00 | 0.51 | 92 | 1010.0 |
| 20260503181031 | 15 | 197 | 3.2 | 11.3 | 0.00 | 0.00 | 0.51 | 92 | 1009.9 |
| 20260503180029 | 15 | 195 | 3.2 | 8.0 | 0.00 | 0.00 | 0.51 | 93 | 1009.8 |
| 20260503175029 | 15 | 193 | 3.2 | 8.0 | 0.00 | 0.00 | 0.51 | 93 | 1009.8 |
| 20260503174030 | 15 | 195 | 4.8 | 16.1 | 0.00 | 0.00 | 0.51 | 93 | 1009.7 |
| 20260503173030 | 15 | 199 | 4.8 | 11.3 | 0.00 | 0.00 | 0.51 | 93 | 1009.8 |
| 20260503172030 | 15 | 203 | 3.2 | 9.7 | 0.00 | 0.00 | 0.51 | 93 | 1009.7 |
| 20260503171029 | 15 | 206 | 3.2 | 11.3 | 0.00 | 0.00 | 0.51 | 94 | 1009.7 |
| 20260503131029 | 15 | 245 | 14.5 | 17.7 | 0.00 | 0.00 | 0.38 | 93 | 1010.3 |